User: anonymous   Login
Location: Hamburg
(53.5500°N, 10.0000°E)
Time: 02:07:42
(UTC+02:00)
Language:

Iridium 10 - Orbit

View from above orbital plane
View from above orbital plane
View from above satellite
View from above satellite

Ground track
Ground track

The orbit data is extracted from the following two-line orbital elements,

1 24839U 97030D   17177.10799233 -.00000001 +00000-0 -75421-5 0  9999
2 24839 086.3947 346.3409 0002172 088.2414 048.1706 14.34215165048216
Epoch (UTC): 26 June 2017 02:35:30
Eccentricity: 0.0002172
inclination: 86.3947°
perigee height: 776 km
apogee height: 779 km
right ascension of ascending node: 346.3409°
argument of perigee: 88.2414°
revolutions per day: 14.34215165
mean anomaly at epoch: 48.1706°
orbit number at epoch: 4821

The dashed part of the orbit path shows where the satellite is in the earth's shadow,  

DLR